| time (UTC) | temp C | wind direction | speed KPH | gust KPH | rain 1hr cm | rain 24hr cm | rain mn cm | humidity % | barometer mb |
| 20260510051039 | 21 | 248 | 9.7 | 24.1 | 0.00 | 0.00 | 0.00 | 27 | 1017.1 |
| 20260510050017 | 21 | 248 | 8.0 | 29.0 | 0.00 | 0.00 | 0.00 | 28 | 1016.9 |
| 20260510043017 | 21 | 248 | 11.3 | 33.8 | 0.00 | 0.00 | 0.00 | 28 | 1017.0 |
| 20260510042017 | 21 | 248 | 9.7 | 32.2 | 0.00 | 0.00 | 0.00 | 28 | 1016.9 |
| 20260510041015 | 21 | 225 | 8.0 | 29.0 | 0.00 | 0.00 | 0.00 | 27 | 1016.8 |
| 20260510040017 | 22 | 225 | 11.3 | 32.2 | 0.00 | 0.00 | 0.00 | 26 | 1016.8 |
| 20260510035037 | 22 | 248 | 11.3 | 35.4 | 0.00 | 0.00 | 0.00 | 26 | 1016.7 |
| 20260510034017 | 22 | 248 | 9.7 | 30.6 | 0.00 | 0.00 | 0.00 | 25 | 1016.5 |
| 20260510033017 | 22 | 248 | 12.9 | 35.4 | 0.00 | 0.00 | 0.00 | 25 | 1016.8 |
| 20260510032037 | 22 | 248 | 12.9 | 35.4 | 0.00 | 0.00 | 0.00 | 25 | 1016.5 |
| 20260510031016 | 22 | 248 | 14.5 | 33.8 | 0.00 | 0.00 | 0.00 | 25 | 1016.5 |
| 20260510030018 | 22 | 248 | 6.4 | 37.0 | 0.00 | 0.00 | 0.00 | 24 | 1016.4 |
| 20260510023058 | 23 | 0.0 | 0.0 | 0.00 | 0.00 | 0.00 | 23 | 1015.9 | |
| 20260510022017 | 23 | 0.0 | 0.0 | 0.00 | 0.00 | 0.00 | 23 | 1016.1 | |
| 20260510021027 | 23 | 0.0 | 0.0 | 0.00 | 0.00 | 0.00 | 23 | 1015.9 | |
| 20260510020021 | 24 | 0.0 | 0.0 | 0.00 | 0.00 | 0.00 | 23 | 1015.7 | |
| 20260510015016 | 24 | 0.0 | 0.0 | 0.00 | 0.00 | 0.00 | 23 | 1015.7 | |
| 20260510014016 | 25 | 0.0 | 0.0 | 0.00 | 0.00 | 0.00 | 22 | 1015.8 | |
| 20260510013016 | 25 | 0.0 | 0.0 | 0.00 | 0.00 | 0.00 | 21 | 1015.6 | |
| 20260510012017 | 25 | 0.0 | 0.0 | 0.00 | 0.00 | 0.00 | 21 | 1015.5 | |
| 20260510011018 | 25 | 0.0 | 0.0 | 0.00 | 0.00 | 0.00 | 21 | 1015.3 | |
| 20260510010037 | 26 | 0.0 | 0.0 | 0.00 | 0.00 | 0.00 | 21 | 1015.5 | |
| 20260510003016 | 26 | 0.0 | 0.0 | 0.00 | 0.00 | 0.00 | 19 | 1015.3 | |
| 20260510002016 | 26 | 0.0 | 0.0 | 0.00 | 0.00 | 0.00 | 20 | 1015.4 | |
| 20260510001016 | 26 | 0.0 | 0.0 | 0.00 | 0.00 | 0.00 | 20 | 1015.4 | |
| 20260510000016 | 26 | 0.0 | 0.0 | 0.00 | 0.00 | 0.00 | 20 | 1015.5 | |
| 20260509235016 | 26 | 0.0 | 0.0 | 0.00 | 0.00 | 0.00 | 22 | 1015.6 | |
| 20260509234041 | 26 | 0.0 | 0.0 | 0.00 | 0.00 | 0.00 | 21 | 1015.5 | |
| 20260509233047 | 26 | 0.0 | 0.0 | 0.00 | 0.00 | 0.00 | 22 | 1015.2 | |
| 20260509232017 | 25 | 0.0 | 0.0 | 0.00 | 0.00 | 0.00 | 21 | 1015.0 | |
| 20260509231016 | 25 | 0.0 | 0.0 | 0.00 | 0.00 | 0.00 | 22 | 1015.2 | |
| 20260509230016 | 25 | 0.0 | 0.0 | 0.00 | 0.00 | 0.00 | 21 | 1015.2 | |
| 20260509225017 | 25 | 0.0 | 0.0 | 0.00 | 0.00 | 0.00 | 19 | 1015.1 | |
| 20260509224017 | 25 | 0.0 | 0.0 | 0.00 | 0.00 | 0.00 | 21 | 1015.3 | |
| 20260509223016 | 24 | 0.0 | 0.0 | 0.00 | 0.00 | 0.00 | 24 | 1015.1 | |
| 20260509222017 | 25 | 0.0 | 0.0 | 0.00 | 0.00 | 0.00 | 24 | 1015.8 | |
| 20260509221016 | 26 | 0.0 | 0.0 | 0.00 | 0.00 | 0.00 | 19 | 1015.9 | |
| 20260509220017 | 26 | 0.0 | 0.0 | 0.00 | 0.00 | 0.00 | 18 | 1015.9 | |
| 20260509215016 | 26 | 0.0 | 0.0 | 0.00 | 0.00 | 0.00 | 17 | 1016.0 | |
| 20260509213058 | 26 | 0.0 | 0.0 | 0.00 | 0.00 | 0.00 | 17 | 1016.0 | |
| 20260509212016 | 27 | 0.0 | 0.0 | 0.00 | 0.00 | 0.00 | 15 | 1016.2 | |
| 20260509211016 | 27 | 0.0 | 0.0 | 0.00 | 0.00 | 0.00 | 15 | 1016.1 | |
| 20260509210017 | 27 | 0.0 | 0.0 | 0.00 | 0.00 | 0.00 | 14 | 1016.1 | |
| 20260509205017 | 27 | 0.0 | 0.0 | 0.00 | 0.00 | 0.00 | 14 | 1016.2 | |
| 20260509204038 | 28 | 0.0 | 0.0 | 0.00 | 0.00 | 0.00 | 13 | 1016.6 | |
| 20260509203017 | 28 | 0.0 | 0.0 | 0.00 | 0.00 | 0.00 | 13 | 1016.8 | |
| 20260509202017 | 28 | 0.0 | 0.0 | 0.00 | 0.00 | 0.00 | 13 | 1016.9 | |
| 20260509201016 | 28 | 0.0 | 0.0 | 0.00 | 0.00 | 0.00 | 13 | 1017.1 | |
| 20260509200016 | 28 | 0.0 | 0.0 | 0.00 | 0.00 | 0.00 | 13 | 1017.3 | |
| 20260509195016 | 28 | 0.0 | 0.0 | 0.00 | 0.00 | 0.00 | 13 | 1017.6 | |
| 20260509194015 | 27 | 0.0 | 0.0 | 0.00 | 0.00 | 0.00 | 13 | 1017.3 | |
| 20260509191015 | 25 | 0.0 | 0.0 | 0.00 | 0.00 | 0.00 | 14 | 1017.2 | |
| 20260509190016 | 25 | 0.0 | 0.0 | 0.00 | 0.00 | 0.00 | 14 | 1017.5 | |
| 20260509185015 | 25 | 0.0 | 0.0 | 0.00 | 0.00 | 0.00 | 14 | 1017.7 | |
| 20260509184015 | 25 | 0.0 | 0.0 | 0.00 | 0.00 | 0.00 | 14 | 1017.9 | |
| 20260509183015 | 24 | 0.0 | 0.0 | 0.00 | 0.00 | 0.00 | 14 | 1017.6 | |
| 20260509182015 | 24 | 0.0 | 0.0 | 0.00 | 0.00 | 0.00 | 14 | 1017.7 | |
| 20260509181015 | 24 | 0.0 | 0.0 | 0.00 | 0.00 | 0.00 | 14 | 1017.8 | |
| 20260509180016 | 24 | 0.0 | 0.0 | 0.00 | 0.00 | 0.00 | 14 | 1018.0 | |
| 20260509175016 | 24 | 0.0 | 0.0 | 0.00 | 0.00 | 0.00 | 14 | 1018.3 | |
| 20260509174015 | 23 | 0.0 | 0.0 | 0.00 | 0.00 | 0.00 | 14 | 1018.4 | |
| 20260509172020 | 22 | 0.0 | 0.0 | 0.00 | 0.00 | 0.00 | 15 | 1018.3 | |
| 20260509171018 | 23 | 0.0 | 0.0 | 0.00 | 0.00 | 0.00 | 15 | 1018.4 | |
| 20260509170038 | 23 | 0.0 | 0.0 | 0.00 | 0.00 | 0.00 | 14 | 1018.4 | |
| 20260509165017 | 22 | 0.0 | 0.0 | 0.00 | 0.00 | 0.00 | 15 | 1018.6 | |
| 20260509164018 | 22 | 0.0 | 0.0 | 0.00 | 0.00 | 0.00 | 15 | 1018.3 | |
| 20260509163017 | 22 | 0.0 | 0.0 | 0.00 | 0.00 | 0.00 | 15 | 1018.4 | |
| 20260509162017 | 22 | 0.0 | 0.0 | 0.00 | 0.00 | 0.00 | 16 | 1018.4 | |
| 20260509161017 | 21 | 0.0 | 0.0 | 0.00 | 0.00 | 0.00 | 18 | 1018.5 | |
| 20260509160017 | 21 | 0.0 | 0.0 | 0.00 | 0.00 | 0.00 | 18 | 1018.1 | |
| 20260509155017 | 20 | 0.0 | 0.0 | 0.00 | 0.00 | 0.00 | 18 | 1018.1 | |
| 20260509151017 | 20 | 0.0 | 0.0 | 0.00 | 0.00 | 0.00 | 23 | 1017.7 | |
| 20260509150017 | 20 | 0.0 | 0.0 | 0.00 | 0.00 | 0.00 | 23 | 1017.8 | |
| 20260509145017 | 20 | 0.0 | 0.0 | 0.00 | 0.00 | 0.00 | 22 | 1017.7 | |
| 20260509144016 | 20 | 0.0 | 0.0 | 0.00 | 0.00 | 0.00 | 27 | 1017.9 | |
| 20260509143016 | 19 | 0.0 | 0.0 | 0.00 | 0.00 | 0.00 | 27 | 1017.7 | |
| 20260509142017 | 18 | 0.0 | 0.0 | 0.00 | 0.00 | 0.00 | 30 | 1017.4 | |
| 20260509141017 | 18 | 0.0 | 0.0 | 0.00 | 0.00 | 0.00 | 31 | 1016.9 | |
| 20260509140037 | 17 | 0.0 | 0.0 | 0.00 | 0.00 | 0.00 | 36 | 1016.9 | |
| 20260509135016 | 16 | 0.0 | 0.0 | 0.00 | 0.00 | 0.00 | 38 | 1016.3 | |
| 20260509134038 | 16 | 0.0 | 0.0 | 0.00 | 0.00 | 0.00 | 39 | 1016.2 | |
| 20260509133016 | 16 | 0.0 | 0.0 | 0.00 | 0.00 | 0.00 | 39 | 1016.2 | |
| 20260509132018 | 15 | 0.0 | 0.0 | 0.00 | 0.00 | 0.00 | 42 | 1015.7 | |
| 20260509131016 | 15 | 0.0 | 6.4 | 0.00 | 0.00 | 0.00 | 43 | 1015.6 | |
| 20260509130017 | 15 | 248 | 3.2 | 11.3 | 0.00 | 0.00 | 0.00 | 42 | 1015.3 |
| 20260509125016 | 15 | 248 | 1.6 | 9.7 | 0.00 | 0.00 | 0.00 | 42 | 1015.2 |
| 20260509124016 | 14 | 0.0 | 8.0 | 0.00 | 0.00 | 0.00 | 43 | 1014.6 | |
| 20260509123016 | 14 | 248 | 1.6 | 8.0 | 0.00 | 0.00 | 0.00 | 43 | 1014.5 |
| 20260509122017 | 14 | 248 | 1.6 | 14.5 | 0.00 | 0.00 | 0.00 | 44 | 1014.4 |
| 20260509121016 | 14 | 248 | 1.6 | 11.3 | 0.00 | 0.00 | 0.00 | 43 | 1014.2 |
| 20260509120016 | 14 | 248 | 1.6 | 12.9 | 0.00 | 0.00 | 0.00 | 45 | 1014.1 |
| 20260509114016 | 14 | 248 | 3.2 | 12.9 | 0.00 | 0.00 | 0.00 | 41 | 1013.6 |
| 20260509113057 | 14 | 270 | 1.6 | 12.9 | 0.00 | 0.00 | 0.00 | 41 | 1013.5 |
| 20260509112016 | 15 | 270 | 1.6 | 9.7 | 0.00 | 0.00 | 0.00 | 38 | 1013.8 |
| 20260509111016 | 15 | 270 | 3.2 | 8.0 | 0.00 | 0.00 | 0.00 | 37 | 1013.7 |
| 20260509110016 | 15 | 270 | 1.6 | 9.7 | 0.00 | 0.00 | 0.00 | 35 | 1013.5 |
| 20260509105016 | 16 | 270 | 1.6 | 8.0 | 0.00 | 0.00 | 0.00 | 34 | 1013.5 |
| 20260509104017 | 15 | 270 | 1.6 | 8.0 | 0.00 | 0.00 | 0.00 | 35 | 1013.4 |
| 20260509103016 | 15 | 0.0 | 8.0 | 0.00 | 0.00 | 0.00 | 35 | 1013.3 | |
| 20260509102016 | 15 | 270 | 1.6 | 8.0 | 0.00 | 0.00 | 0.00 | 35 | 1013.2 |
| 20260509101016 | 15 | 0.0 | 0.0 | 0.00 | 0.00 | 0.00 | 36 | 1013.0 | |
| 20260509100025 | 15 | 0.0 | 0.0 | 0.00 | 0.00 | 0.00 | 36 | 1013.0 | |
| 20260509095016 | 16 | 0.0 | 0.0 | 0.00 | 0.00 | 0.00 | 36 | 1013.3 | |
| 20260509094015 | 16 | 270 | 4.8 | 12.9 | 0.00 | 0.00 | 0.00 | 36 | 1013.3 |
| 20260509093016 | 16 | 270 | 1.6 | 11.3 | 0.00 | 0.00 | 0.00 | 35 | 1013.4 |
| 20260509092036 | 16 | 270 | 3.2 | 14.5 | 0.00 | 0.00 | 0.00 | 35 | 1013.4 |
| 20260509091015 | 16 | 270 | 3.2 | 12.9 | 0.00 | 0.00 | 0.00 | 36 | 1013.5 |
| 20260509090016 | 16 | 270 | 4.8 | 12.9 | 0.00 | 0.00 | 0.00 | 36 | 1013.4 |
| 20260509085016 | 16 | 270 | 6.4 | 14.5 | 0.00 | 0.00 | 0.00 | 37 | 1013.5 |
| 20260509084015 | 16 | 270 | 4.8 | 14.5 | 0.00 | 0.00 | 0.00 | 39 | 1013.7 |
| 20260509083015 | 16 | 270 | 4.8 | 12.9 | 0.00 | 0.00 | 0.00 | 39 | 1013.9 |
| 20260509082016 | 15 | 293 | 3.2 | 12.9 | 0.00 | 0.00 | 0.00 | 42 | 1013.5 |
| 20260509081015 | 15 | 293 | 1.6 | 11.3 | 0.00 | 0.00 | 0.00 | 43 | 1013.6 |
| 20260509080016 | 16 | 293 | 1.6 | 9.7 | 0.00 | 0.00 | 0.00 | 41 | 1014.1 |
| 20260509075015 | 16 | 293 | 1.6 | 11.3 | 0.00 | 0.00 | 0.00 | 42 | 1014.1 |
| 20260509074015 | 16 | 0.0 | 0.0 | 0.00 | 0.00 | 0.00 | 42 | 1013.7 | |
| 20260509073015 | 16 | 293 | 3.2 | 12.9 | 0.00 | 0.00 | 0.00 | 42 | 1014.0 |
| 20260509072015 | 16 | 270 | 6.4 | 16.1 | 0.00 | 0.00 | 0.00 | 41 | 1014.1 |
| 20260509071036 | 17 | 270 | 4.8 | 14.5 | 0.00 | 0.00 | 0.00 | 41 | 1014.2 |
| 20260509070035 | 17 | 293 | 6.4 | 17.7 | 0.00 | 0.00 | 0.00 | 41 | 1014.7 |
| 20260509065015 | 17 | 293 | 8.0 | 14.5 | 0.00 | 0.00 | 0.00 | 41 | 1014.4 |
| 20260509064016 | 17 | 293 | 4.8 | 16.1 | 0.00 | 0.00 | 0.00 | 41 | 1014.5 |
| 20260509063015 | 16 | 293 | 4.8 | 16.1 | 0.00 | 0.00 | 0.00 | 42 | 1014.5 |
| 20260509062015 | 17 | 270 | 4.8 | 12.9 | 0.00 | 0.00 | 0.00 | 41 | 1015.0 |
| 20260509061015 | 17 | 270 | 1.6 | 11.3 | 0.00 | 0.00 | 0.00 | 40 | 1015.1 |
| 20260509060017 | 17 | 0.0 | 8.0 | 0.00 | 0.00 | 0.00 | 39 | 1015.1 | |
| 20260509055015 | 18 | 248 | 1.6 | 12.9 | 0.00 | 0.00 | 0.00 | 42 | 1015.5 |
| 20260509054015 | 18 | 248 | 6.4 | 17.7 | 0.00 | 0.00 | 0.00 | 42 | 1015.4 |
| 20260509053037 | 18 | 248 | 3.2 | 11.3 | 0.00 | 0.00 | 0.00 | 40 | 1015.5 |
| 20260509052015 | 19 | 248 | 4.8 | 16.1 | 0.00 | 0.00 | 0.00 | 40 | 1015.9 |